Overview Statistics Trail Chart Weather Telemetry Raw packets
 

This is the latest recevied weather packets stored in our database for station/object KC9DRE. If no packets are shown the sender has not sent any weather packets the latest 10 day(s).

<< 64 65 66 67 68 69 70 >>
Time Temp. Humidity Pressure Rain* Wind** Luminosity Snow
1777485369 18.33° C 67% 1012.7 hPa 0 mm - 405 W/m² -
1777485065 18.89° C 71% 1012.9 hPa 0 mm - 370 W/m² -
1777484762 17.78° C 77% 1012.8 hPa 0 mm - 1070 W/m² -
1777484458 17.22° C 75% 1012.9 hPa 0 mm - 1030 W/m² -
1777484155 17.78° C 77% 1012.9 hPa 0 mm - 210 W/m² -
1777483851 17.78° C 76% 1012.8 hPa 0 mm - 273 W/m² -
1777483548 17.78° C 76% 1012.9 hPa 0 mm - 420 W/m² -
1777483243 17.78° C 78% 1013 hPa 0 mm - 356 W/m² -
1777482939 16.67° C 81% 1012.8 hPa 0 mm - 955 W/m² -
1777482635 16.67° C 81% 1012.9 hPa 0 mm - 367 W/m² -
1777482332 17.22° C 78% 1013 hPa 0 mm - 206 W/m² -
1777482030 16.11° C 87% 1013.1 hPa 0 mm - 890 W/m² -
1777481727 15.56° C 85% 1013 hPa 0 mm - 351 W/m² -
1777481425 15.56° C 86% 1012.9 hPa 0 mm - 352 W/m² -
1777481121 15.56° C 88% 1012.9 hPa 0 mm - 261 W/m² -
1777480817 15° C 89% 1012.9 hPa 0 mm - 340 W/m² -
1777480514 15.56° C 88% 1012.7 hPa 0 mm - 175 W/m² -
1777480211 15° C 89% 1012.6 hPa 0 mm - 289 W/m² -
1777479908 15° C 90% 1012.5 hPa 0 mm - 295 W/m² -
1777479604 15° C 91% 1012.8 hPa 0 mm - 156 W/m² -
1777479302 14.44° C 91% 1012.5 hPa 0 mm - 184 W/m² -
1777478998 14.44° C 90% 1012.7 hPa 0 mm - 154 W/m² -
1777478695 15° C 91% 1012.6 hPa 0 mm - 102 W/m² -
1777478391 15° C 89% 1012.6 hPa 0 mm - 149 W/m² -
1777478088 15° C 89% 1012.9 hPa 0 mm - 134 W/m² -

* Rain latest hour (hover to see other rain measurements)
** Current wind speed in m/s (hover to see current wind gust speed)